Погода в Оглоблине

Россия / Костромская область     58°59′04″N   42°04′12″E
темп.,
°C
ветер,
м/с
пор.,
м/с
влажн.,
%
обл.,
%
осадки,
мм/ч
давл.,
гПа
погр.,
м
16 сентября, чт
чт1600:00+2ссз3109817 0.0 1012327
03:00+4ссз31089100 0.0 1013430
06:00+4сз3883100 0.0 1014372
09:00+5ссз3881100 0.0 1016454
12:00+9ссз3557100 0.0 10161515
15:00+8сз3658100 0.0 1016735
18:00+7зсз3770100 0.0 1016258
21:00+5с2780100 0.1 1017346
17 сентября, пт
пт1700:00+3ссз259283 0.1 1018138
03:00+4зсз2681100 0.1 1018177
06:00+4сз2880100 0.1 1018326
09:00+6ссз3664100 0.1 1019734
12:00+8ссз455885 0.1 10191508
15:00+7ссз467184 0.4 10201221
18:00+5ссз3881100 0.1 1021423
21:00+5ссз3787100 0.1 1022827
18 сентября, сб
сб1800:00+5ссз269190 0.1 1023517
03:00+4с3891100 0.2 1024583
06:00+3с388599 0.1 1025523
09:00+4ссв2668100 0.1 1026724
12:00+7с345390 0.0 10261479
15:00+7с355597 0.0 10261300
18:00+5с366193 0.0 1027277
21:00+2ссв27825 0.0 1028252
19 сентября, вс
вс1900:00+1ссв237998 0.0 1028107
03:00+3с256784 0.0 1028140
06:000ссз227963 0.0 102820
09:00+6с356094 0.0 1028426
12:00+8с345873 0.0 10281272
15:00+7ссв3465100 0.0 1027888
18:00+5ссв3669100 0.0 1028414
21:00+3св3873100 0.0 1028392
20 сентября, пн
пн2000:00+1св2886100 0.0 1029191
03:000св248791 0.0 102993
06:00+3всв3767100 0.0 1029756
09:00+4всв4763100 0.0 10301323
12:00+5всв4760100 0.0 10301333
15:00+6всв4758100 0.0 10291376
18:00+4всв4866100 0.0 1030965
21:00+1св310805 0.0 1030264